Weather History for Buffalo, NY

Change the Weather History Date:

Tuesday, September 6, 2011

  Actual Average Record
Temperature  
Mean Temperature 59 °F 66 °F  
Max Temperature 63 °F 75 °F 93 °F (1945)
Min Temperature 55 °F 57 °F 40 °F (1984)
Degree Days  
Heating Degree Days 6 2  
Month to date heating degree days 10 11  
Since 1 July heating degree days 12 38  
Cooling Degree Days 0 3  
Month to date cooling degree days 47 19  
Year to date cooling degree days 722 506  
Growing Degree Days 9 (Base 50)    
Moisture  
Dew Point 53 °F    
Average Humidity 80    
Maximum Humidity 93    
Minimum Humidity 67    
Precipitation  
Precipitation 0.01 in 0.11 in 0.84 in (1889)
Month to date precipitation 1.14 0.69  
Year to date precipitation 34.70 25.85  
Snow  
Snow 0.00 in 0.00 in 0.00 in ()
Month to date snowfall 0.0 0.0  
Since 1 July snowfall 0.0 0.0  
Since 1 September snowfall 0.0 0.0  
Snow Depth 0.00 in    
Sea Level Pressure  
Sea Level Pressure 30.09 in    
Wind  
Wind Speed 8 mph (NE)    
Max Wind Speed 16 mph    
Max Gust Speed 21 mph    
Visibility 9 miles    
Events Rain    
T = Trace of Precipitation, MM = Missing Value Source: NWS Daily Summary

Daily Weather History Graph

Daily Weather History Graph

Search for Another Location

Airport:

Trip Planner

Search our weather history database for the weather conditions in past years. The results will help you decide how hot, cold, wet, or windy it might be!

Date:

Astronomy

Sep. 06, 2011 Rise Set
Actual Time 6:44 AM EDT 7:41 PM EDT
Civil Twilight 6:15 AM EDT 8:10 PM EDT
Nautical Twilight 5:41 AM EDT 8:44 PM EDT
Astronomical Twilight 5:05 AM EDT 9:20 PM EDT
Moon 4:21 PM EDT (9/6) 12:50 AM EDT (9/6)
Length of Visible Light 13h 54m
Length of Day
12h 56m
Waxing Gibbous, 70% of the Moon is Illuminated
Sep 6
Waxing Gibbous
Sep 12
Full
Sep 20
Last Quarter
Sep 27
New
Oct 3
First Quarter

Hourly Weather History & Observations

Time (EDT) Temp. Dew Point Humidity Pressure Visibility Wind Dir Wind Speed Gust Speed Precip Events Conditions
12:50 AM 57.2 °F 51.8 °F 82% 30.00 in 10.0 mi North 9.2 mph - N/A   Overcast
12:54 AM 57.0 °F 51.1 °F 81% 30.01 in 10.0 mi North 6.9 mph - N/A   Overcast
1:41 AM 55.4 °F 51.8 °F 88% 30.01 in 10.0 mi NNE 6.9 mph - 0.00 in   Light Drizzle
1:50 AM 55.4 °F 51.8 °F 88% 30.01 in 10.0 mi NNE 6.9 mph - 0.00 in   Overcast
1:54 AM 55.9 °F 52.0 °F 87% 30.01 in 10.0 mi NNE 10.4 mph - 0.00 in   Overcast
2:23 AM 55.4 °F 53.6 °F 94% 30.01 in 10.0 mi NNE 5.8 mph - 0.00 in   Overcast
2:54 AM 55.9 °F 53.1 °F 90% 30.02 in 10.0 mi North 5.8 mph - 0.00 in   Overcast
3:54 AM 55.9 °F 53.1 °F 90% 30.03 in 4.0 mi North 4.6 mph - 0.00 in Rain Light Rain
4:54 AM 57.0 °F 53.1 °F 87% 30.04 in 10.0 mi NNE 5.8 mph - 0.00 in   Overcast
5:28 AM 57.2 °F 51.8 °F 82% 30.05 in 10.0 mi NNE 8.1 mph - N/A   Overcast
5:54 AM 55.9 °F 53.1 °F 90% 30.06 in 10.0 mi NE 5.8 mph - 0.00 in   Light Drizzle
6:52 AM 55.4 °F 53.6 °F 94% 30.07 in 10.0 mi NNE 6.9 mph - N/A   Overcast
6:54 AM 55.9 °F 53.1 °F 90% 30.08 in 10.0 mi NE 6.9 mph - 0.00 in   Overcast
7:13 AM 55.4 °F 51.8 °F 88% 30.07 in 7.0 mi NE 10.4 mph - 0.00 in   Light Drizzle
7:26 AM 55.4 °F 53.6 °F 94% 30.08 in 2.5 mi NE 9.2 mph - 0.00 in   Light Drizzle
7:41 AM 55.4 °F 53.6 °F 94% 30.08 in 10.0 mi NNE 11.5 mph - 0.00 in   Mostly Cloudy
7:54 AM 55.0 °F 52.0 °F 89% 30.10 in 10.0 mi NNE 6.9 mph - 0.00 in   Mostly Cloudy
8:34 AM 55.4 °F 51.8 °F 88% 30.10 in 10.0 mi NE 8.1 mph - N/A   Overcast
8:54 AM 57.0 °F 52.0 °F 83% 30.10 in 8.0 mi NE 10.4 mph - 0.00 in   Light Drizzle
9:54 AM 57.0 °F 52.0 °F 83% 30.11 in 7.0 mi NNE 8.1 mph - 0.00 in   Light Drizzle
10:54 AM 57.2 °F 53.6 °F 88% 30.13 in 5.0 mi NNE 9.2 mph - N/A Rain Light Rain
11:54 AM 59.0 °F 53.6 °F 82% 30.14 in 10.0 mi NE 9.2 mph - N/A   Mostly Cloudy
12:54 PM 62.1 °F 53.1 °F 72% 30.14 in 10.0 mi NNE 10.4 mph - N/A   Mostly Cloudy
1:54 PM 62.6 °F 51.8 °F 68% 30.14 in 10.0 mi ENE 11.5 mph - N/A   Overcast
2:54 PM 63.0 °F 53.1 °F 70% 30.14 in 10.0 mi NE 12.7 mph - N/A   Mostly Cloudy
3:31 PM 62.6 °F 53.6 °F 72% 30.14 in 10.0 mi North 12.7 mph - N/A   Mostly Cloudy
3:54 PM 63.0 °F 53.1 °F 70% 30.14 in 10.0 mi NNE 12.7 mph 19.6 mph N/A   Mostly Cloudy
4:54 PM 62.1 °F 52.0 °F 70% 30.14 in 10.0 mi NE 11.5 mph - N/A   Mostly Cloudy
5:54 PM 62.1 °F 52.0 °F 70% 30.14 in 10.0 mi NNE 11.5 mph - N/A   Mostly Cloudy
6:54 PM 61.0 °F 53.1 °F 75% 30.13 in 10.0 mi NE 8.1 mph - N/A   Mostly Cloudy
7:54 PM 60.8 °F 53.6 °F 77% 30.13 in 10.0 mi NE 5.8 mph - N/A   Mostly Cloudy
8:54 PM 59.0 °F 53.1 °F 81% 30.16 in 10.0 mi NE 3.5 mph - N/A   Mostly Cloudy
9:54 PM 59.0 °F 54.0 °F 83% 30.15 in 10.0 mi ENE 5.8 mph - N/A   Mostly Cloudy
10:54 PM 59.0 °F 54.0 °F 83% 30.15 in 10.0 mi NE 4.6 mph - N/A   Mostly Cloudy
11:54 PM 59.0 °F 54.0 °F 83% 30.12 in 10.0 mi ENE 6.9 mph - N/A   Mostly Cloudy